"Sample Date","Sample Time","Sensor Name","Sample Value","Units","Flow Rate","Sample Interval","Sample Volume","Laser Status","Number Channels","Micron Size 0","Counts/Channel 0","Micron Size 1","Counts/Channel 1","Micron Size 2","Counts/Channel 2","Micron Size 3","Counts/Channel 3","Micron Size 4","Counts/Channel 4","Micron Size 5","Counts/Channel 5","Micron Size 6","Counts/Channel 6","Micron Size 7","Counts/Channel 7","Micron Size 8","Counts/Channel 8","Micron Size 9","Counts/Channel 9","Micron Size 10","Counts/Channel 10","Micron Size 11","Counts/Channel 11","Micron Size 12","Counts/Channel 12","Micron Size 13","Counts/Channel 13","Micron Size 14","Counts/Channel 14","Micron Size 15","Counts/Channel 15","Micron Size 16","Counts/Channel 16","Micron Size 17","Counts/Channel 17","Micron Size 18","Counts/Channel 18","Micron Size 19","Counts/Channel 19","Micron Size 20","Counts/Channel 20","Micron Size 21","Counts/Channel 21","Micron Size 22","Counts/Channel 22","Micron Size 23","Counts/Channel 23","Micron Size 24","Counts/Channel 24","Micron Size 25","Counts/Channel 25","Micron Size 26","Counts/Channel 26","Micron Size 27","Counts/Channel 27","Micron Size 28","Counts/Channel 28","Micron Size 29","Counts/Channel 29","Micron Size 30","Counts/Channel 30","Micron Size 31","Counts/Channel 31"
"07/10/06","00:00:02","AMMA06",29577.000,"cc",28301.727,6.00,2830.173,1,6,0.100,16629.000,0.200,11286.000,0.300,1509.000,0.500,108.000,1.000,45.000,5.000,0
"07/10/06","00:00:08","AMMA06",29640.000,"cc",28324.967,6.00,2832.497,1,6,0.100,16544.000,0.200,11391.000,0.300,1561.000,0.500,101.000,1.000,43.000,5.000,0
"07/10/06","00:00:14","AMMA06",29963.000,"cc",28390.137,6.00,2839.014,1,6,0.100,16775.000,0.200,11449.000,0.300,1543.000,0.500,140.000,1.000,56.000,5.000,0
"07/10/06","00:00:20","AMMA06",29641.000,"cc",28303.807,6.00,2830.381,1,6,0.100,16610.000,0.200,11321.000,0.300,1544.000,0.500,119.000,1.000,47.000,5.000,0
"07/10/06","00:00:26","AMMA06",29752.000,"cc",28267.760,6.00,2826.776,1,6,0.100,16698.000,0.200,11417.000,0.300,1504.000,0.500,94.000,1.000,39.000,5.000,0
"07/10/06","00:00:32","AMMA06",29360.000,"cc",28291.348,6.00,2829.135,1,6,0.100,16294.000,0.200,11398.000,0.300,1503.000,0.500,120.000,1.000,45.000,5.000,0
"07/10/06","00:00:38","AMMA06",29666.000,"cc",28330.389,6.00,2833.039,1,6,0.100,16604.000,0.200,11404.000,0.300,1488.000,0.500,129.000,1.000,41.000,5.000,0
"07/10/06","00:00:44","AMMA06",29629.000,"cc",28329.365,6.00,2832.937,1,6,0.100,16578.000,0.200,11314.000,0.300,1566.000,0.500,123.000,1.000,48.000,5.000,0
"07/10/06","00:00:50","AMMA06",29388.000,"cc",28302.660,6.00,2830.266,1,6,0.100,16435.000,0.200,11332.000,0.300,1473.000,0.500,107.000,1.000,41.000,5.000,0
"07/10/06","00:00:56","AMMA06",29741.000,"cc",28318.697,6.00,2831.870,1,6,0.100,16507.000,0.200,11471.000,0.300,1606.000,0.500,114.000,1.000,43.000,5.000,0
"07/10/06","00:01:02","AMMA06",29790.000,"cc",28369.594,6.00,2836.960,1,6,0.100,16576.000,0.200,11465.000,0.300,1581.000,0.500,125.000,1.000,43.000,5.000,0
"07/10/06","00:01:08","AMMA06",29165.000,"cc",28312.715,6.00,2831.272,1,6,0.100,16233.000,0.200,11261.000,0.300,1512.000,0.500,111.000,1.000,48.000,5.000,0
"07/10/06","00:01:14","AMMA06",29427.000,"cc",28348.906,6.00,2834.891,1,6,0.100,16242.000,0.200,11472.000,0.300,1565.000,0.500,116.000,1.000,32.000,5.000,0
"07/10/06","00:01:20","AMMA06",29115.000,"cc",28328.482,6.00,2832.848,1,6,0.100,16049.000,0.200,11350.000,0.300,1569.000,0.500,100.000,1.000,47.000,5.000,0
"07/10/06","00:01:26","AMMA06",29575.000,"cc",28262.963,6.00,2826.296,1,6,0.100,16365.000,0.200,11469.000,0.300,1593.000,0.500,105.000,1.000,43.000,5.000,0
"07/10/06","00:01:32","AMMA06",29295.000,"cc",28345.162,6.00,2834.516,1,6,0.100,16098.000,0.200,11458.000,0.300,1607.000,0.500,85.000,1.000,47.000,5.000,0
"07/10/06","00:01:38","AMMA06",29508.000,"cc",28353.522,6.00,2835.352,1,6,0.100,16369.000,0.200,11418.000,0.300,1579.000,0.500,98.000,1.000,44.000,5.000,0
"07/10/06","00:01:44","AMMA06",29530.000,"cc",28288.191,6.00,2828.819,1,6,0.100,16297.000,0.200,11564.000,0.300,1526.000,0.500,110.000,1.000,33.000,5.000,0
"07/10/06","00:01:50","AMMA06",29598.000,"cc",28312.547,6.00,2831.255,1,6,0.100,16471.000,0.200,11437.000,0.300,1535.000,0.500,115.000,1.000,40.000,5.000,0
"07/10/06","00:01:56","AMMA06",29652.000,"cc",28325.457,6.00,2832.546,1,6,0.100,16449.000,0.200,11429.000,0.300,1613.000,0.500,114.000,1.000,47.000,5.000,0
"07/10/06","00:02:02","AMMA06",29544.000,"cc",28335.190,6.00,2833.519,1,6,0.100,16263.000,0.200,11572.000,0.300,1559.000,0.500,100.000,1.000,50.000,5.000,0
"07/10/06","00:02:08","AMMA06",29686.000,"cc",28279.537,6.00,2827.954,1,6,0.100,16395.000,0.200,11537.000,0.300,1589.000,0.500,116.000,1.000,49.000,5.000,0
"07/10/06","00:02:14","AMMA06",29665.000,"cc",28301.326,6.00,2830.133,1,6,0.100,16463.000,0.200,11537.000,0.300,1508.000,0.500,99.000,1.000,58.000,5.000,0
"07/10/06","00:02:20","AMMA06",29665.000,"cc",28308.863,6.00,2830.887,1,6,0.100,16472.000,0.200,11432.000,0.300,1612.000,0.500,105.000,1.000,44.000,5.000,0
"07/10/06","00:02:26","AMMA06",29634.000,"cc",28333.867,6.00,2833.387,1,6,0.100,16365.000,0.200,11557.000,0.300,1567.000,0.500,103.000,1.000,42.000,5.000,0
"07/10/06","00:02:32","AMMA06",29904.000,"cc",28294.463,6.00,2829.447,1,6,0.100,16570.000,0.200,11551.000,0.300,1575.000,0.500,154.000,1.000,54.000,5.000,0
"07/10/06","00:02:38","AMMA06",29968.000,"cc",28292.748,6.00,2829.275,1,6,0.100,16526.000,0.200,11619.000,0.300,1589.000,0.500,157.000,1.000,77.000,5.000,0
"07/10/06","00:02:44","AMMA06",29844.000,"cc",28338.217,6.00,2833.822,1,6,0.100,16393.000,0.200,11661.000,0.300,1605.000,0.500,129.000,1.000,56.000,5.000,0
"07/10/06","00:02:50","AMMA06",29820.000,"cc",28310.065,6.00,2831.007,1,6,0.100,16518.000,0.200,11559.000,0.300,1579.000,0.500,108.000,1.000,56.000,5.000,0
"07/10/06","00:02:56","AMMA06",30123.000,"cc",28289.586,6.00,2828.959,1,6,0.100,16739.000,0.200,11641.000,0.300,1578.000,0.500,108.000,1.000,57.000,5.000,0
"07/10/06","00:03:02","AMMA06",29599.000,"cc",28264.813,6.00,2826.481,1,6,0.100,16402.000,0.200,11486.000,0.300,1563.000,0.500,100.000,1.000,48.000,5.000,0
"07/10/06","00:03:08","AMMA06",29979.000,"cc",28369.174,6.00,2836.918,1,6,0.100,16557.000,0.200,11734.000,0.300,1545.000,0.500,97.000,1.000,46.000,5.000,0
"07/10/06","00:03:14","AMMA06",29669.000,"cc",28325.641,6.00,2832.564,1,6,0.100,16291.000,0.200,11594.000,0.300,1626.000,0.500,106.000,1.000,52.000,5.000,0
"07/10/06","00:03:20","AMMA06",29583.000,"cc",28363.074,6.00,2836.308,1,6,0.100,16230.000,0.200,11576.000,0.300,1605.000,0.500,130.000,1.000,42.000,5.000,0
"07/10/06","00:03:26","AMMA06",29717.000,"cc",28308.182,6.00,2830.818,1,6,0.100,16420.000,0.200,11490.000,0.300,1639.000,0.500,118.000,1.000,50.000,5.000,0
"07/10/06","00:03:32","AMMA06",29664.000,"cc",28327.051,6.00,2832.705,1,6,0.100,16329.000,0.200,11642.000,0.300,1520.000,0.500,125.000,1.000,48.000,5.000,0
"07/10/06","00:03:38","AMMA06",29408.000,"cc",28310.273,6.00,2831.028,1,6,0.100,16230.000,0.200,11489.000,0.300,1526.000,0.500,109.000,1.000,54.000,5.000,0
"07/10/06","00:03:44","AMMA06",30071.000,"cc",28266.602,6.00,2826.660,1,6,0.100,16714.000,0.200,11691.000,0.300,1519.000,0.500,114.000,1.000,33.000,5.000,0
"07/10/06","00:03:50","AMMA06",30467.000,"cc",28345.328,6.00,2834.533,1,6,0.100,16900.000,0.200,11755.000,0.300,1594.000,0.500,147.000,1.000,71.000,5.000,0
"07/10/06","00:03:56","AMMA06",29828.000,"cc",28331.934,6.00,2833.194,1,6,0.100,16449.000,0.200,11609.000,0.300,1557.000,0.500,150.000,1.000,63.000,5.000,0
"07/10/06","00:04:02","AMMA06",29714.000,"cc",28288.992,6.00,2828.899,1,6,0.100,16504.000,0.200,11545.000,0.300,1496.000,0.500,118.000,1.000,51.000,5.000,0
"07/10/06","00:04:08","AMMA06",29589.000,"cc",28329.617,6.00,2832.962,1,6,0.100,16435.000,0.200,11440.000,0.300,1579.000,0.500,96.000,1.000,39.000,5.000,0
"07/10/06","00:04:14","AMMA06",29755.000,"cc",28312.703,6.00,2831.271,1,6,0.100,16636.000,0.200,11465.000,0.300,1497.000,0.500,105.000,1.000,52.000,5.000,0
"07/10/06","00:04:20","AMMA06",29772.000,"cc",28335.375,6.00,2833.538,1,6,0.100,16734.000,0.200,11430.000,0.300,1462.000,0.500,109.000,1.000,37.000,5.000,0
"07/10/06","00:04:26","AMMA06",29784.000,"cc",28354.957,6.00,2835.496,1,6,0.100,16557.000,0.200,11526.000,0.300,1519.000,0.500,128.000,1.000,54.000,5.000,0
"07/10/06","00:04:32","AMMA06",29479.000,"cc",28264.795,6.00,2826.480,1,6,0.100,16340.000,0.200,11460.000,0.300,1516.000,0.500,115.000,1.000,48.000,5.000,0
"07/10/06","00:04:38","AMMA06",29542.000,"cc",28322.578,6.00,2832.258,1,6,0.100,16479.000,0.200,11422.000,0.300,1482.000,0.500,98.000,1.000,61.000,5.000,0
"07/10/06","00:04:44","AMMA06",29671.000,"cc",28317.295,6.00,2831.730,1,6,0.100,16620.000,0.200,11312.000,0.300,1599.000,0.500,96.000,1.000,44.000,5.000,0
"07/10/06","00:04:50","AMMA06",29326.000,"cc",28307.227,6.00,2830.723,1,6,0.100,16461.000,0.200,11219.000,0.300,1496.000,0.500,113.000,1.000,37.000,5.000,0
"07/10/06","00:04:56","AMMA06",29902.000,"cc",28318.758,6.00,2831.876,1,6,0.100,16873.000,0.200,11373.000,0.300,1502.000,0.500,110.000,1.000,44.000,5.000,0
"07/10/06","00:05:02","AMMA06",29547.000,"cc",28333.025,6.00,2833.303,1,6,0.100,16467.000,0.200,11388.000,0.300,1531.000,0.500,122.000,1.000,39.000,5.000,0
"07/10/06","00:05:08","AMMA06",29635.000,"cc",28310.926,6.00,2831.093,1,6,0.100,16548.000,0.200,11460.000,0.300,1460.000,0.500,108.000,1.000,59.000,5.000,0
"07/10/06","00:05:14","AMMA06",29608.000,"cc",28318.223,6.00,2831.823,1,6,0.100,16539.000,0.200,11464.000,0.300,1449.000,0.500,98.000,1.000,58.000,5.000,0
"07/10/06","00:05:20","AMMA06",29547.000,"cc",28268.795,6.00,2826.880,1,6,0.100,16641.000,0.200,11261.000,0.300,1482.000,0.500,99.000,1.000,64.000,5.000,0
"07/10/06","00:05:26","AMMA06",29238.000,"cc",28288.375,6.00,2828.838,1,6,0.100,16335.000,0.200,11212.000,0.300,1516.000,0.500,118.000,1.000,57.000,5.000,0
"07/10/06","00:05:32","AMMA06",29515.000,"cc",28288.500,6.00,2828.850,1,6,0.100,16526.000,0.200,11330.000,0.300,1485.000,0.500,114.000,1.000,60.000,5.000,0
"07/10/06","00:05:38","AMMA06",29449.000,"cc",28358.525,6.00,2835.853,1,6,0.100,16485.000,0.200,11327.000,0.300,1458.000,0.500,137.000,1.000,42.000,5.000,0
"07/10/06","00:05:44","AMMA06",29156.000,"cc",28365.596,6.00,2836.560,1,6,0.100,16324.000,0.200,11203.000,0.300,1472.000,0.500,117.000,1.000,40.000,5.000,0
"07/10/06","00:05:50","AMMA06",29144.000,"cc",28307.557,6.00,2830.756,1,6,0.100,16315.000,0.200,11113.000,0.300,1546.000,0.500,117.000,1.000,53.000,5.000,0
"07/10/06","00:05:56","AMMA06",29209.000,"cc",28251.531,6.00,2825.153,1,6,0.100,16488.000,0.200,11067.000,0.300,1488.000,0.500,121.000,1.000,45.000,5.000,0
"07/10/06","00:06:02","AMMA06",29273.000,"cc",28321.191,6.00,2832.119,1,6,0.100,16431.000,0.200,11214.000,0.300,1448.000,0.500,112.000,1.000,68.000,5.000,0
"07/10/06","00:06:08","AMMA06",29257.000,"cc",28309.264,6.00,2830.927,1,6,0.100,16499.000,0.200,11061.000,0.300,1519.000,0.500,115.000,1.000,63.000,5.000,0
"07/10/06","00:06:14","AMMA06",29393.000,"cc",28343.768,6.00,2834.377,1,6,0.100,16469.000,0.200,11189.000,0.300,1551.000,0.500,119.000,1.000,65.000,5.000,0
"07/10/06","00:06:20","AMMA06",29101.000,"cc",28331.572,6.00,2833.158,1,6,0.100,16445.000,0.200,11041.000,0.300,1457.000,0.500,102.000,1.000,56.000,5.000,0
"07/10/06","00:06:26","AMMA06",29264.000,"cc",28305.094,6.00,2830.510,1,6,0.100,16591.000,0.200,11033.000,0.300,1463.000,0.500,127.000,1.000,50.000,5.000,0
"07/10/06","00:06:32","AMMA06",29333.000,"cc",28296.367,6.00,2829.637,1,6,0.100,16661.000,0.200,11064.000,0.300,1445.000,0.500,120.000,1.000,43.000,5.000,0
"07/10/06","00:06:38","AMMA06",29254.000,"cc",28353.852,6.00,2835.385,1,6,0.100,16587.000,0.200,11081.000,0.300,1429.000,0.500,116.000,1.000,41.000,5.000,0
"07/10/06","00:06:44","AMMA06",29117.000,"cc",28327.295,6.00,2832.730,1,6,0.100,16503.000,0.200,10968.000,0.300,1500.000,0.500,95.000,1.000,51.000,5.000,0
"07/10/06","00:06:50","AMMA06",29339.000,"cc",28289.576,6.00,2828.958,1,6,0.100,16634.000,0.200,11068.000,0.300,1477.000,0.500,109.000,1.000,51.000,5.000,0
"07/10/06","00:06:56","AMMA06",29071.000,"cc",28320.506,6.00,2832.051,1,6,0.100,16397.000,0.200,11103.000,0.300,1409.000,0.500,114.000,1.000,48.000,5.000,0
"07/10/06","00:07:02","AMMA06",29271.000,"cc",28299.967,6.00,2829.997,1,6,0.100,16578.000,0.200,11032.000,0.300,1509.000,0.500,114.000,1.000,38.000,5.000,0
"07/10/06","00:07:08","AMMA06",29044.000,"cc",28350.670,6.00,2835.067,1,6,0.100,16327.000,0.200,11080.000,0.300,1452.000,0.500,131.000,1.000,54.000,5.000,0
"07/10/06","00:07:14","AMMA06",29194.000,"cc",28285.498,6.00,2828.550,1,6,0.100,16537.000,0.200,11004.000,0.300,1486.000,0.500,127.000,1.000,40.000,5.000,0
"07/10/06","00:07:20","AMMA06",29085.000,"cc",28313.365,6.00,2831.337,1,6,0.100,16394.000,0.200,11017.000,0.300,1512.000,0.500,121.000,1.000,41.000,5.000,0
"07/10/06","00:07:26","AMMA06",29661.000,"cc",28344.734,6.00,2834.474,1,6,0.100,16784.000,0.200,11169.000,0.300,1491.000,0.500,145.000,1.000,72.000,5.000,0
"07/10/06","00:07:32","AMMA06",29425.000,"cc",28307.156,6.00,2830.716,1,6,0.100,16587.000,0.200,11076.000,0.300,1559.000,0.500,137.000,1.000,66.000,5.000,0
"07/10/06","00:07:38","AMMA06",29408.000,"cc",28304.707,6.00,2830.471,1,6,0.100,16521.000,0.200,11256.000,0.300,1478.000,0.500,112.000,1.000,41.000,5.000,0
"07/10/06","00:07:44","AMMA06",30264.000,"cc",28260.039,6.00,2826.004,1,6,0.100,16831.000,0.200,11452.000,0.300,1675.000,0.500,224.000,1.000,82.000,5.000,0
"07/10/06","00:07:50","AMMA06",29352.000,"cc",28330.445,6.00,2833.045,1,6,0.100,16389.000,0.200,11245.000,0.300,1481.000,0.500,174.000,1.000,63.000,5.000,0
"07/10/06","00:07:56","AMMA06",29525.000,"cc",28349.422,6.00,2834.942,1,6,0.100,16638.000,0.200,11165.000,0.300,1553.000,0.500,115.000,1.000,54.000,5.000,0
"07/10/06","00:08:02","AMMA06",29215.000,"cc",28337.012,6.00,2833.701,1,6,0.100,16451.000,0.200,11046.000,0.300,1547.000,0.500,113.000,1.000,58.000,5.000,0
"07/10/06","00:08:08","AMMA06",29037.000,"cc",28312.252,6.00,2831.225,1,6,0.100,16372.000,0.200,10975.000,0.300,1511.000,0.500,121.000,1.000,58.000,5.000,0
"07/10/06","00:08:14","AMMA06",29305.000,"cc",28285.467,6.00,2828.547,1,6,0.100,16477.000,0.200,11183.000,0.300,1480.000,0.500,112.000,1.000,53.000,5.000,0
"07/10/06","00:08:20","AMMA06",29284.000,"cc",28313.797,6.00,2831.380,1,6,0.100,16352.000,0.200,11295.000,0.300,1478.000,0.500,105.000,1.000,54.000,5.000,0
"07/10/06","00:08:26","AMMA06",28957.000,"cc",28342.928,6.00,2834.293,1,6,0.100,16318.000,0.200,11084.000,0.300,1386.000,0.500,118.000,1.000,51.000,5.000,0
"07/10/06","00:08:32","AMMA06",29307.000,"cc",28295.502,6.00,2829.550,1,6,0.100,16461.000,0.200,11165.000,0.300,1498.000,0.500,131.000,1.000,52.000,5.000,0
"07/10/06","00:08:38","AMMA06",29089.000,"cc",28336.803,6.00,2833.680,1,6,0.100,16155.000,0.200,11257.000,0.300,1477.000,0.500,123.000,1.000,77.000,5.000,0
"07/10/06","00:08:44","AMMA06",29262.000,"cc",28349.965,6.00,2834.997,1,6,0.100,16359.000,0.200,11253.000,0.300,1468.000,0.500,113.000,1.000,69.000,5.000,0
"07/10/06","00:08:50","AMMA06",29053.000,"cc",28297.611,6.00,2829.761,1,6,0.100,16267.000,0.200,11109.000,0.300,1525.000,0.500,103.000,1.000,49.000,5.000,0
"07/10/06","00:08:56","AMMA06",28949.000,"cc",28367.201,6.00,2836.720,1,6,0.100,16168.000,0.200,11148.000,0.300,1491.000,0.500,107.000,1.000,35.000,5.000,0
"07/10/06","00:09:02","AMMA06",29254.000,"cc",28287.807,6.00,2828.781,1,6,0.100,16356.000,0.200,11296.000,0.300,1453.000,0.500,98.000,1.000,51.000,5.000,0
"07/10/06","00:09:08","AMMA06",29485.000,"cc",28341.391,6.00,2834.139,1,6,0.100,16683.000,0.200,11179.000,0.300,1431.000,0.500,123.000,1.000,69.000,5.000,0
"07/10/06","00:09:14","AMMA06",28817.000,"cc",28313.865,6.00,2831.387,1,6,0.100,16213.000,0.200,10952.000,0.300,1484.000,0.500,117.000,1.000,51.000,5.000,0
"07/10/06","00:09:20","AMMA06",28457.000,"cc",28296.270,6.00,2829.627,1,6,0.100,16042.000,0.200,10788.000,0.300,1451.000,0.500,120.000,1.000,56.000,5.000,0
"07/10/06","00:09:26","AMMA06",28745.000,"cc",28327.436,6.00,2832.744,1,6,0.100,16274.000,0.200,10797.000,0.300,1503.000,0.500,130.000,1.000,41.000,5.000,0
"07/10/06","00:09:32","AMMA06",28529.000,"cc",28316.895,6.00,2831.690,1,6,0.100,16126.000,0.200,10815.000,0.300,1457.000,0.500,101.000,1.000,30.000,5.000,0
"07/10/06","00:09:38","AMMA06",28360.000,"cc",28337.031,6.00,2833.703,1,6,0.100,16077.000,0.200,10678.000,0.300,1434.000,0.500,114.000,1.000,57.000,5.000,0
"07/10/06","00:09:44","AMMA06",29086.000,"cc",28268.725,6.00,2826.873,1,6,0.100,16515.000,0.200,10982.000,0.300,1426.000,0.500,112.000,1.000,51.000,5.000,0
"07/10/06","00:09:50","AMMA06",28834.000,"cc",28361.543,6.00,2836.155,1,6,0.100,16226.000,0.200,10992.000,0.300,1460.000,0.500,114.000,1.000,42.000,5.000,0
"07/10/06","00:09:56","AMMA06",28829.000,"cc",28322.123,6.00,2832.212,1,6,0.100,16454.000,0.200,10743.000,0.300,1465.000,0.500,117.000,1.000,50.000,5.000,0
"07/10/06","00:10:02","AMMA06",28716.000,"cc",28273.891,6.00,2827.389,1,6,0.100,16327.000,0.200,10784.000,0.300,1457.000,0.500,106.000,1.000,42.000,5.000,0
"07/10/06","00:10:08","AMMA06",28773.000,"cc",28285.934,6.00,2828.594,1,6,0.100,16245.000,0.200,10885.000,0.300,1474.000,0.500,113.000,1.000,56.000,5.000,0
"07/10/06","00:10:14","AMMA06",29110.000,"cc",28318.994,6.00,2831.900,1,6,0.100,16418.000,0.200,10978.000,0.300,1529.000,0.500,127.000,1.000,58.000,5.000,0
"07/10/06","00:10:20","AMMA06",28893.000,"cc",28346.377,6.00,2834.638,1,6,0.100,16280.000,0.200,10937.000,0.300,1514.000,0.500,110.000,1.000,52.000,5.000,0
"07/10/06","00:10:26","AMMA06",28863.000,"cc",28337.106,6.00,2833.711,1,6,0.100,16296.000,0.200,10996.000,0.300,1407.000,0.500,112.000,1.000,52.000,5.000,0
"07/10/06","00:10:32","AMMA06",28744.000,"cc",28311.523,6.00,2831.153,1,6,0.100,16215.000,0.200,10906.000,0.300,1469.000,0.500,109.000,1.000,45.000,5.000,0
"07/10/06","00:10:38","AMMA06",28792.000,"cc",28334.906,6.00,2833.491,1,6,0.100,16391.000,0.200,10784.000,0.300,1458.000,0.500,99.000,1.000,60.000,5.000,0
"07/10/06","00:10:44","AMMA06",28569.000,"cc",28340.252,6.00,2834.025,1,6,0.100,16242.000,0.200,10604.000,0.300,1561.000,0.500,112.000,1.000,50.000,5.000,0
"07/10/06","00:10:50","AMMA06",29032.000,"cc",28322.402,6.00,2832.241,1,6,0.100,16486.000,0.200,10990.000,0.300,1396.000,0.500,110.000,1.000,50.000,5.000,0
"07/10/06","00:10:56","AMMA06",32172.000,"cc",28269.246,6.00,2826.925,1,6,0.100,17628.000,0.200,11701.000,0.300,2117.000,0.500,520.000,1.000,206.000,5.000,0
"07/10/06","00:11:02","AMMA06",29611.000,"cc",28265.123,6.00,2826.513,1,6,0.100,16673.000,0.200,11022.000,0.300,1638.000,0.500,187.000,1.000,91.000,5.000,0
"07/10/06","00:11:08","AMMA06",29211.000,"cc",28327.559,6.00,2832.756,1,6,0.100,16340.000,0.200,11030.000,0.300,1598.000,0.500,171.000,1.000,72.000,5.000,0
"07/10/06","00:11:14","AMMA06",28886.000,"cc",28345.084,6.00,2834.509,1,6,0.100,16274.000,0.200,10876.000,0.300,1548.000,0.500,143.000,1.000,45.000,5.000,0
"07/10/06","00:11:20","AMMA06",28724.000,"cc",28295.938,6.00,2829.594,1,6,0.100,16330.000,0.200,10703.000,0.300,1512.000,0.500,129.000,1.000,50.000,5.000,0
"07/10/06","00:11:26","AMMA06",28896.000,"cc",28328.139,6.00,2832.814,1,6,0.100,16249.000,0.200,10825.000,0.300,1629.000,0.500,125.000,1.000,68.000,5.000,0
"07/10/06","00:11:32","AMMA06",29150.000,"cc",28312.176,6.00,2831.218,1,6,0.100,16388.000,0.200,11054.000,0.300,1517.000,0.500,130.000,1.000,61.000,5.000,0
"07/10/06","00:11:38","AMMA06",28924.000,"cc",28299.996,6.00,2830.000,1,6,0.100,16489.000,0.200,10828.000,0.300,1430.000,0.500,126.000,1.000,51.000,5.000,0
"07/10/06","00:11:44","AMMA06",28590.000,"cc",28370.301,6.00,2837.030,1,6,0.100,16274.000,0.200,10702.000,0.300,1483.000,0.500,92.000,1.000,39.000,5.000,0
"07/10/06","00:11:50","AMMA06",28540.000,"cc",28332.715,6.00,2833.272,1,6,0.100,16123.000,0.200,10783.000,0.300,1469.000,0.500,116.000,1.000,49.000,5.000,0
"07/10/06","00:11:56","AMMA06",28554.000,"cc",28327.074,6.00,2832.708,1,6,0.100,16238.000,0.200,10691.000,0.300,1438.000,0.500,127.000,1.000,59.000,5.000,1.000
"07/10/06","00:12:02","AMMA06",29004.000,"cc",28285.688,6.00,2828.569,1,6,0.100,16516.000,0.200,10810.000,0.300,1525.000,0.500,103.000,1.000,50.000,5.000,0
"07/10/06","00:12:08","AMMA06",28705.000,"cc",28292.022,6.00,2829.202,1,6,0.100,16396.000,0.200,10618.000,0.300,1523.000,0.500,111.000,1.000,57.000,5.000,0
"07/10/06","00:12:14","AMMA06",28766.000,"cc",28283.975,6.00,2828.398,1,6,0.100,16283.000,0.200,10796.000,0.300,1512.000,0.500,130.000,1.000,45.000,5.000,0
"07/10/06","00:12:20","AMMA06",28748.000,"cc",28286.854,6.00,2828.686,1,6,0.100,16341.000,0.200,10707.000,0.300,1489.000,0.500,158.000,1.000,53.000,5.000,0
"07/10/06","00:12:26","AMMA06",28778.000,"cc",28356.082,6.00,2835.608,1,6,0.100,16458.000,0.200,10653.000,0.300,1485.000,0.500,124.000,1.000,58.000,5.000,0
"07/10/06","00:12:32","AMMA06",28486.000,"cc",28318.066,6.00,2831.807,1,6,0.100,16152.000,0.200,10714.000,0.300,1495.000,0.500,90.000,1.000,35.000,5.000,0
"07/10/06","00:12:38","AMMA06",28970.000,"cc",28280.760,6.00,2828.076,1,6,0.100,16580.000,0.200,10699.000,0.300,1528.000,0.500,113.000,1.000,50.000,5.000,0
"07/10/06","00:12:44","AMMA06",28713.000,"cc",28367.703,6.00,2836.771,1,6,0.100,16360.000,0.200,10782.000,0.300,1411.000,0.500,106.000,1.000,54.000,5.000,0
"07/10/06","00:12:50","AMMA06",28510.000,"cc",28331.367,6.00,2833.137,1,6,0.100,16288.000,0.200,10627.000,0.300,1414.000,0.500,132.000,1.000,49.000,5.000,0
"07/10/06","00:12:56","AMMA06",28771.000,"cc",28280.639,6.00,2828.064,1,6,0.100,16426.000,0.200,10743.000,0.300,1452.000,0.500,112.000,1.000,38.000,5.000,0
"07/10/06","00:13:02","AMMA06",28614.000,"cc",28353.262,6.00,2835.326,1,6,0.100,16449.000,0.200,10516.000,0.300,1446.000,0.500,129.000,1.000,74.000,5.000,0
"07/10/06","00:13:08","AMMA06",28444.000,"cc",28283.592,6.00,2828.359,1,6,0.100,16392.000,0.200,10444.000,0.300,1429.000,0.500,126.000,1.000,53.000,5.000,0
"07/10/06","00:13:14","AMMA06",28925.000,"cc",28353.402,6.00,2835.340,1,6,0.100,16637.000,0.200,10556.000,0.300,1513.000,0.500,157.000,1.000,62.000,5.000,0
"07/10/06","00:13:20","AMMA06",28739.000,"cc",28358.568,6.00,2835.857,1,6,0.100,16386.000,0.200,10659.000,0.300,1482.000,0.500,139.000,1.000,73.000,5.000,0
"07/10/06","00:13:26","AMMA06",28723.000,"cc",28255.004,6.00,2825.501,1,6,0.100,16461.000,0.200,10452.000,0.300,1556.000,0.500,183.000,1.000,71.000,5.000,0
"07/10/06","00:13:32","AMMA06",28704.000,"cc",28339.850,6.00,2833.985,1,6,0.100,16359.000,0.200,10702.000,0.300,1454.000,0.500,120.000,1.000,69.000,5.000,0
"07/10/06","00:13:38","AMMA06",28499.000,"cc",28304.772,6.00,2830.477,1,6,0.100,16317.000,0.200,10579.000,0.300,1417.000,0.500,118.000,1.000,68.000,5.000,0
"07/10/06","00:13:44","AMMA06",28483.000,"cc",28275.662,6.00,2827.566,1,6,0.100,16426.000,0.200,10471.000,0.300,1409.000,0.500,111.000,1.000,66.000,5.000,0
"07/10/06","00:13:50","AMMA06",28340.000,"cc",28328.982,6.00,2832.898,1,6,0.100,16355.000,0.200,10449.000,0.300,1395.000,0.500,104.000,1.000,37.000,5.000,0
"07/10/06","00:13:56","AMMA06",28679.000,"cc",28325.834,6.00,2832.584,1,6,0.100,16461.000,0.200,10523.000,0.300,1511.000,0.500,121.000,1.000,63.000,5.000,0
"07/10/06","00:14:02","AMMA06",28721.000,"cc",28338.934,6.00,2833.894,1,6,0.100,16439.000,0.200,10686.000,0.300,1413.000,0.500,134.000,1.000,49.000,5.000,0
"07/10/06","00:14:08","AMMA06",28424.000,"cc",28285.537,6.00,2828.554,1,6,0.100,16295.000,0.200,10483.000,0.300,1439.000,0.500,139.000,1.000,68.000,5.000,0
"07/10/06","00:14:14","AMMA06",28758.000,"cc",28299.961,6.00,2829.996,1,6,0.100,16643.000,0.200,10502.000,0.300,1400.000,0.500,149.000,1.000,64.000,5.000,0
"07/10/06","00:14:20","AMMA06",28372.000,"cc",28334.873,6.00,2833.488,1,6,0.100,16239.000,0.200,10561.000,0.300,1405.000,0.500,122.000,1.000,45.000,5.000,0